timestamp,wind_dir_avg,wind_spd_avg,wind_spd_max_dir,wind_spd_gust,battery_voltage,lat,long
2023-10-10 00:04:00+00:00,89.0,3.2,85.0,5.57,12.49,47.59359,-54.27349
2023-10-10 00:14:01+00:00,96.0,3.38,92.0,4.84,12.41,47.59359,-54.27349
2023-10-10 00:24:01+00:00,97.0,2.95,108.0,5.36,12.41,47.59359,-54.27349
2023-10-10 00:34:01+00:00,92.0,3.4,80.0,4.9,12.41,47.59359,-54.27349
2023-10-10 00:44:01+00:00,90.0,4.06,78.0,5.65,12.41,47.59359,-54.27349
2023-10-10 00:54:01+00:00,99.0,3.48,124.0,5.92,12.41,47.59359,-54.27349
2023-10-10 01:04:01+00:00,95.0,4.15,104.0,5.62,12.41,47.59359,-54.27349
2023-10-10 01:14:01+00:00,103.0,4.19,122.0,7.01,12.41,47.59359,-54.27349
2023-10-10 01:24:01+00:00,91.0,3.36,119.0,5.9,12.41,47.59359,-54.27349
2023-10-10 01:34:01+00:00,96.0,4.02,96.0,5.79,12.41,47.59359,-54.27349
2023-10-10 01:44:01+00:00,96.0,3.2,108.0,5.29,12.41,47.59359,-54.27349
2023-10-10 01:54:01+00:00,88.0,3.34,78.0,5.17,12.41,47.59359,-54.27349
2023-10-10 02:04:01+00:00,102.0,3.94,93.0,4.94,12.41,47.59359,-54.27349
2023-10-10 02:14:01+00:00,100.0,3.35,86.0,4.77,12.41,47.59359,-54.27349
2023-10-10 02:24:01+00:00,98.0,3.29,125.0,5.01,12.41,47.59359,-54.27349
2023-10-10 02:34:01+00:00,86.0,2.93,90.0,4.01,12.41,47.59359,-54.27349
2023-10-10 02:44:01+00:00,88.0,3.18,69.0,4.41,12.41,47.59359,-54.27349
2023-10-10 02:54:01+00:00,91.0,3.66,76.0,4.79,12.41,47.59359,-54.27349
2023-10-10 03:04:01+00:00,82.0,3.59,79.0,5.22,12.41,47.59359,-54.27349
2023-10-10 03:14:01+00:00,94.0,3.07,99.0,4.17,12.41,47.59359,-54.27349
2023-10-10 03:24:01+00:00,81.0,3.9,76.0,5.42,12.41,47.59359,-54.27349
2023-10-10 03:34:01+00:00,104.0,4.0,96.0,5.78,12.41,47.59359,-54.27349
2023-10-10 03:44:01+00:00,108.0,3.91,103.0,6.41,12.41,47.59359,-54.27349
2023-10-10 03:54:01+00:00,107.0,3.88,109.0,5.15,12.41,47.59359,-54.27349
2023-10-10 04:04:01+00:00,106.0,3.18,123.0,5.07,12.41,47.59359,-54.27349
2023-10-10 04:14:00+00:00,93.0,3.25,104.0,5.02,12.41,47.59359,-54.27349
2023-10-10 04:24:00+00:00,72.0,3.78,62.0,5.51,12.41,47.59359,-54.27349
2023-10-10 04:34:00+00:00,85.0,3.25,87.0,5.08,12.41,47.59359,-54.27349
2023-10-10 04:44:00+00:00,92.0,3.08,95.0,4.78,12.41,47.59359,-54.27349
2023-10-10 04:54:00+00:00,100.0,2.96,111.0,4.18,12.41,47.59359,-54.27349
2023-10-10 05:04:00+00:00,113.0,2.32,120.0,3.26,12.41,47.59359,-54.27349
2023-10-10 05:14:01+00:00,90.0,2.16,89.0,3.25,12.33,47.59359,-54.27349
2023-10-10 05:24:01+00:00,82.0,2.81,63.0,4.3,12.33,47.59359,-54.27349
2023-10-10 05:34:01+00:00,82.0,2.5,75.0,3.28,12.33,47.59359,-54.27349
2023-10-10 05:44:01+00:00,81.0,2.55,73.0,3.41,12.33,47.59359,-54.27349
2023-10-10 05:54:01+00:00,83.0,2.93,86.0,3.84,12.33,47.59359,-54.27349
2023-10-10 06:04:01+00:00,78.0,3.13,82.0,4.17,12.33,47.59359,-54.27349
2023-10-10 06:14:01+00:00,74.0,2.64,58.0,3.27,12.41,47.59359,-54.27349
2023-10-10 06:24:01+00:00,85.0,2.5,102.0,3.41,12.41,47.59359,-54.27349
2023-10-10 06:34:01+00:00,72.0,3.05,62.0,4.17,12.41,47.59359,-54.27349
2023-10-10 06:44:01+00:00,73.0,3.04,56.0,4.14,12.41,47.59359,-54.27349
2023-10-10 06:54:01+00:00,94.0,2.88,85.0,3.81,12.41,47.59359,-54.27349
2023-10-10 07:04:01+00:00,95.0,2.89,112.0,4.26,12.41,47.59359,-54.27349
2023-10-10 07:14:01+00:00,106.0,3.02,97.0,4.61,12.33,47.59359,-54.27349
2023-10-10 07:24:01+00:00,113.0,2.91,135.0,4.17,12.33,47.59359,-54.27349
2023-10-10 07:34:01+00:00,95.0,2.55,81.0,3.32,12.33,47.59359,-54.27349
2023-10-10 07:44:01+00:00,118.0,3.2,139.0,4.45,12.33,47.59359,-54.27349
2023-10-10 07:54:01+00:00,94.0,1.97,135.0,3.44,12.33,47.59359,-54.27349
2023-10-10 08:04:01+00:00,110.0,3.5,120.0,5.04,12.33,47.59359,-54.27349
2023-10-10 08:14:00+00:00,119.0,4.4,125.0,5.19,12.25,47.59359,-54.27349
2023-10-10 08:24:00+00:00,124.0,3.44,126.0,3.85,12.25,47.59359,-54.27349
2023-10-10 08:34:00+00:00,88.0,2.37,89.0,3.35,12.25,47.59359,-54.27349
2023-10-10 08:44:00+00:00,99.0,2.46,122.0,3.99,12.25,47.59359,-54.27349
2023-10-10 08:54:00+00:00,98.0,3.08,110.0,4.29,12.25,47.59359,-54.27349
2023-10-10 09:04:00+00:00,115.0,3.13,125.0,3.96,12.25,47.59359,-54.27349
2023-10-10 09:14:00+00:00,126.0,3.83,128.0,4.64,12.25,47.59359,-54.27349
2023-10-10 09:24:00+00:00,125.0,4.26,129.0,4.85,12.25,47.59359,-54.27349
2023-10-10 09:34:00+00:00,115.0,2.91,119.0,3.56,12.25,47.59359,-54.27349
2023-10-10 09:44:00+00:00,116.0,2.97,122.0,3.64,12.25,47.59359,-54.27349
2023-10-10 09:54:00+00:00,114.0,3.05,121.0,3.88,12.25,47.59359,-54.27349
2023-10-10 10:04:00+00:00,111.0,2.19,135.0,3.26,12.25,47.59359,-54.27349
2023-10-10 10:14:01+00:00,92.0,2.49,99.0,3.49,12.17,47.59359,-54.27349
2023-10-10 10:24:01+00:00,70.0,3.59,66.0,4.6,12.17,47.59359,-54.27349
2023-10-10 10:34:01+00:00,87.0,2.28,81.0,3.18,12.17,47.59359,-54.27349
2023-10-10 10:44:01+00:00,80.0,2.7,62.0,3.59,12.17,47.59359,-54.27349
2023-10-10 10:54:01+00:00,74.0,2.31,58.0,3.43,12.17,47.59359,-54.27349
2023-10-10 11:04:01+00:00,80.0,2.23,75.0,3.53,12.17,47.59359,-54.27349
2023-10-10 11:14:01+00:00,85.0,2.55,72.0,3.27,12.73,47.59359,-54.27349
2023-10-10 11:24:01+00:00,71.0,3.74,65.0,4.73,12.73,47.59359,-54.27349
2023-10-10 11:34:01+00:00,73.0,3.66,57.0,4.7,12.73,47.59359,-54.27349
2023-10-10 11:44:01+00:00,73.0,3.52,48.0,5.32,12.73,47.59359,-54.27349
2023-10-10 11:54:01+00:00,67.0,3.24,51.0,4.75,12.73,47.59359,-54.27349
2023-10-10 12:04:01+00:00,80.0,2.99,56.0,4.47,12.73,47.59359,-54.27349
2023-10-10 12:14:01+00:00,76.0,3.37,73.0,4.76,13.29,47.59359,-54.27349
2023-10-10 12:24:01+00:00,85.0,3.0,93.0,4.18,13.29,47.59359,-54.27349
2023-10-10 12:34:01+00:00,89.0,2.47,104.0,3.2,13.29,47.59359,-54.27349
2023-10-10 12:44:01+00:00,71.0,3.0,60.0,4.36,13.29,47.59359,-54.27349
2023-10-10 12:54:01+00:00,88.0,2.64,88.0,3.77,13.29,47.59359,-54.27349
2023-10-10 13:04:01+00:00,93.0,2.25,63.0,2.85,13.29,47.59359,-54.27349
2023-10-10 13:14:01+00:00,94.0,2.79,126.0,4.27,13.44,47.59359,-54.27349
2023-10-10 13:24:01+00:00,92.0,2.25,123.0,3.43,13.44,47.59359,-54.27349
2023-10-10 13:34:01+00:00,79.0,2.72,69.0,3.48,13.44,47.59359,-54.27349
2023-10-10 13:44:01+00:00,73.0,3.72,66.0,4.95,13.44,47.59359,-54.27349
2023-10-10 13:54:01+00:00,72.0,3.61,70.0,4.4,13.44,47.59359,-54.27349
2023-10-10 14:04:01+00:00,68.0,3.37,58.0,4.34,13.44,47.59359,-54.27349
2023-10-10 14:14:01+00:00,64.0,3.1,66.0,3.54,13.68,47.59359,-54.27349
2023-10-10 14:24:01+00:00,59.0,3.11,58.0,3.45,13.68,47.59359,-54.27349
2023-10-10 14:34:01+00:00,81.0,2.07,112.0,3.04,13.68,47.59359,-54.27349
2023-10-10 14:44:01+00:00,77.0,1.4,95.0,2.31,13.68,47.59359,-54.27349
2023-10-10 14:54:01+00:00,121.0,2.36,120.0,3.7,13.68,47.59359,-54.27349
2023-10-10 15:04:01+00:00,124.0,1.2,133.0,2.01,13.68,47.59359,-54.27349
2023-10-10 15:14:01+00:00,146.0,2.81,147.0,3.25,13.76,47.59359,-54.27349
2023-10-10 15:24:01+00:00,131.0,3.28,135.0,4.13,13.76,47.59359,-54.27349
2023-10-10 15:34:01+00:00,123.0,2.71,113.0,3.58,13.76,47.59359,-54.27349
2023-10-10 15:44:01+00:00,124.0,3.31,129.0,4.0,13.76,47.59359,-54.27349
2023-10-10 15:54:01+00:00,104.0,2.92,99.0,4.99,13.76,47.59359,-54.27349
2023-10-10 16:04:01+00:00,131.0,4.98,139.0,6.15,13.76,47.59359,-54.27349
2023-10-10 16:14:00+00:00,100.0,3.36,98.0,5.25,13.92,47.59359,-54.27349
2023-10-10 16:24:00+00:00,117.0,2.46,123.0,4.53,13.92,47.59359,-54.27349
2023-10-10 16:34:00+00:00,100.0,2.66,89.0,4.85,13.92,47.59359,-54.27349
2023-10-10 16:44:00+00:00,73.0,2.76,51.0,4.15,13.92,47.59359,-54.27349
2023-10-10 16:54:00+00:00,66.0,3.31,73.0,4.59,13.92,47.59359,-54.27349
2023-10-10 17:04:00+00:00,51.0,2.96,43.0,3.74,13.92,47.59359,-54.27349
2023-10-10 17:14:01+00:00,134.0,2.9,128.0,3.83,13.6,47.59359,-54.27349
2023-10-10 17:24:01+00:00,142.0,2.18,154.0,3.9,13.6,47.59359,-54.27349
2023-10-10 17:34:01+00:00,130.0,2.52,130.0,2.89,13.6,47.59359,-54.27349
2023-10-10 17:44:01+00:00,149.0,3.48,147.0,4.36,13.6,47.59359,-54.27349
2023-10-10 17:54:01+00:00,147.0,4.93,147.0,5.71,13.6,47.59359,-54.27349
2023-10-10 18:04:01+00:00,140.0,6.07,141.0,7.27,13.6,47.59359,-54.27349
2023-10-10 18:14:00+00:00,146.0,5.22,145.0,6.45,13.68,47.59359,-54.27349
2023-10-10 18:24:00+00:00,147.0,5.69,150.0,6.35,13.68,47.59359,-54.27349
2023-10-10 18:34:00+00:00,145.0,6.74,145.0,7.36,13.68,47.59359,-54.27349
2023-10-10 18:44:00+00:00,149.0,6.31,143.0,7.4,13.68,47.59359,-54.27349
2023-10-10 18:54:00+00:00,144.0,6.92,147.0,8.7,13.68,47.59359,-54.27349
2023-10-10 19:04:00+00:00,160.0,6.28,159.0,7.5,13.68,47.59359,-54.27349
2023-10-10 19:14:00+00:00,167.0,6.34,167.0,7.1,13.68,47.59359,-54.27349
2023-10-10 19:24:00+00:00,167.0,5.68,168.0,6.3,13.68,47.59359,-54.27349
2023-10-10 19:34:00+00:00,161.0,6.14,159.0,6.77,13.68,47.59359,-54.27349
2023-10-10 19:44:00+00:00,158.0,6.9,157.0,7.67,13.68,47.59359,-54.27349
2023-10-10 19:54:00+00:00,160.0,6.41,158.0,7.53,13.68,47.59359,-54.27349
2023-10-10 20:04:00+00:00,151.0,6.68,155.0,7.29,13.68,47.59359,-54.27349
2023-10-10 20:14:00+00:00,146.0,5.39,145.0,5.88,13.6,47.59359,-54.27349
2023-10-10 20:24:00+00:00,140.0,5.21,142.0,5.94,13.6,47.59359,-54.27349
2023-10-10 20:34:00+00:00,145.0,5.91,150.0,6.74,13.6,47.59359,-54.27349
2023-10-10 20:44:00+00:00,147.0,6.13,151.0,7.05,13.6,47.59359,-54.27349
2023-10-10 20:54:00+00:00,142.0,6.53,144.0,6.94,13.6,47.59359,-54.27349
2023-10-10 21:04:00+00:00,137.0,7.67,143.0,8.97,13.6,47.59359,-54.27349
2023-10-10 21:14:00+00:00,140.0,7.85,139.0,9.13,12.97,47.59359,-54.27349
2023-10-10 21:24:00+00:00,145.0,7.77,144.0,8.44,12.97,47.59359,-54.27349
2023-10-10 21:34:00+00:00,138.0,6.87,137.0,7.77,12.97,47.59359,-54.27349
2023-10-10 21:44:00+00:00,140.0,5.58,142.0,6.64,12.97,47.59359,-54.27349
2023-10-10 21:54:00+00:00,138.0,6.84,140.0,7.9,12.97,47.59359,-54.27349
2023-10-10 22:04:00+00:00,131.0,5.75,126.0,6.96,12.97,47.59359,-54.27349
2023-10-10 22:14:00+00:00,140.0,7.16,146.0,8.22,12.57,47.59359,-54.27349
2023-10-10 22:24:00+00:00,145.0,6.89,145.0,8.12,12.57,47.59359,-54.27349
2023-10-10 22:34:00+00:00,165.0,3.78,153.0,4.7,12.57,47.59359,-54.27349
2023-10-10 22:44:00+00:00,167.0,5.17,145.0,7.06,12.57,47.59359,-54.27349
2023-10-10 22:54:00+00:00,166.0,5.56,147.0,6.91,12.57,47.59359,-54.27349
2023-10-10 23:04:00+00:00,167.0,7.26,190.0,8.83,12.57,47.59359,-54.27349
2023-10-10 23:14:00+00:00,186.0,6.62,190.0,7.63,12.49,47.59359,-54.27349
2023-10-10 23:24:00+00:00,160.0,6.62,151.0,7.86,12.49,47.59359,-54.27349
2023-10-10 23:34:00+00:00,179.0,5.46,191.0,6.75,12.49,47.59359,-54.27349
2023-10-10 23:44:00+00:00,179.0,4.21,179.0,5.48,12.49,47.59359,-54.27349
2023-10-10 23:54:00+00:00,172.0,4.45,171.0,5.18,12.49,47.59359,-54.27349
